Tracking 28790 objects as of 19-Apr-2024
HD Live streaming from Space Station
objects crossing your sky now

STARLINK-5241

Track STARLINK-5241 now!
10-day predictions
STARLINK-5241 is classified as:


NORAD ID: 54204
Int'l Code: 2022-141AZ
Perigee: 545.9 km
Apogee: 547.9 km
Inclination: 53.2 °
Period: 95.4 minutes
Semi major axis: 6917 km
RCS: Unknown
Launch date: October 28, 2022
Source: United States (US)
Launch site: AIR FORCE WESTERN TEST RANGE (AFWTR)
Your satellite tracking list
Your tracking list is empty




NASA's NSSDC Master Catalog

Two Line Element Set (TLE):
1 54204U 22141AZ  24109.59843867  .00000475  00000-0  47964-4 0  9991
2 54204  53.2175 211.6295 0001485  80.1559 279.9600 15.08833568 81821
Source of the keplerian elements: AFSPC